Torna al catalogo

STARLINK-35333

AttivoComunicazioniVLEO
NORAD 66182·PAYLOAD·🇺🇸 United States

Lanciato Oct 26, 2025 da Cape Canaveral Space Force Station

Loading…

Prossimi Passaggi (prossime 24 ore)

TLE

AggiornatoSource: CelesTrak SupGP

Epoca: Sep 14, 2026, 20:55 UTC

1 66182C 25243F   26257.87201389 -.00021938  00000+0 -64830-3 0  2574
2 66182  53.1582  83.9076 0001258  86.6591 332.9698 15.34394836    10

Traccia STARLINK-35333 in tempo reale con AllMySat

Download on the App Store